AO-07 1 07530U 74089B 17341.58377958 -.00000037 00000-0 49800-4 0 9997 2 07530 101.6580 307.0099 0012178 347.7779 142.3657 12.53630098970358 UO-11 1 14781U 84021B 17341.57967146 .00000087 00000-0 16997-4 0 9998 2 14781 097.6755 020.6936 0008379 001.7436 358.3806 14.82962854795043 LO-19 1 20442U 90005G 17341.39224119 .00000014 00000-0 21221-4 0 9990 2 20442 098.5917 276.2568 0011847 002.0739 358.0492 14.32880295456368 HUBBLE 1 20580U 90037B 17341.32780340 .00000540 00000-0 22201-4 0 9997 2 20580 28.4702 303.3103 0002534 231.9753 279.4719 15.08939019316461 MET-2/21 1 22782U 93055A 17341.27554646 .00000046 00000-0 28184-4 0 9995 2 22782 082.5507 246.2150 0021443 307.9744 165.6403 13.83806595225369 AO-27 1 22825U 93061C 17338.49826980 -.00000006 00000-0 15475-4 0 9999 2 22825 098.8367 306.3734 0008152 187.5813 172.5247 14.30015429261474 IO-26 1 22826U 93061D 17341.49811553 .00000010 00000-0 21492-4 0 9994 2 22826 098.8313 309.4795 0009025 169.1695 190.9683 14.30346043262109 FO-29 1 24278U 96046B 17341.56410842 -.00000041 00000-0 -30065-5 0 9990 2 24278 098.5344 201.5223 0349365 247.9547 108.4146 13.53080605052070 NOAA-15 1 25338U 98030A 17341.54724130 .00000023 00000-0 28324-4 0 9991 2 25338 98.7779 352.7721 0011495 66.0482 294.1900 14.25829470 17716 GO-32 1 25397U 98043D 17341.44218022 -.00000002 00000-0 18182-4 0 9996 2 25397 98.6293 280.2658 0001010 160.5079 199.6138 14.23635356 8447 ISS 1 25544U 98067A 17342.09306300 .00004497 00000-0 75182-4 0 9999 2 25544 51.6420 251.3743 0003184 207.0371 121.1845 15.54111188 88790 NO-44 1 26931U 01043C 17341.50371641 -.00000017 00000-0 25211-4 0 9996 2 26931 067.0517 004.0075 0005254 267.5979 092.4521 14.30486169845064 SO-50 1 27607U 02058C 17341.32564331 .00000033 00000-0 25306-4 0 9996 2 27607 064.5555 316.4516 0041651 018.8044 341.4585 14.75399084804521 CO-55 1 27844U 03031E 17341.58367158 .00000049 00000-0 41935-4 0 9990 2 27844 098.6888 348.0619 0009404 200.2828 159.7977 14.22080420748922 CO-57 1 27848U 03031J 17341.56033540 .00000036 00000-0 36099-4 0 9998 2 27848 098.6978 348.3684 0009116 210.6802 149.3843 14.21689235748800 RS-22 1 27939U 03042A 17341.60603187 .00000141 00000-0 33726-4 0 9997 2 27939 097.9630 121.0307 0013741 041.0294 019.7303 14.66637244758596 NOAA-18 1 28654U 05018A 17341.54922586 -.00000017 00000-0 16029-4 0 9997 2 28654 99.1681 7.8818 0013550 307.5098 52.4841 14.12359786646724 CO-58 1 28895U 05043F 17341.43145071 .00000155 00000-0 38563-4 0 9995 2 28895 97.8833 135.9650 0015898 319.0505 40.9503 14.63482248645823 Falconsat-3 1 30776U 07006E 17341.54541825 .00002679 00000-0 82177-4 0 9999 2 30776 035.4373 045.8686 0002325 098.7084 261.3906 15.33555832594875 CO-65 1 32785U 08021C 17341.54124109 .00000234 00000-0 31146-4 0 9996 2 32785 097.5558 357.8026 0012058 319.0009 041.0301 14.88021411520607 AAUSAT2 1 32788U 08021F 17341.56866525 .00000915 00000-0 90615-4 0 9998 2 32788 097.5416 010.8743 0010394 270.2071 089.7959 14.94140564521464 DO-64 1 32789U 08021G 17341.60116055 .00001029 00000-0 75570-4 0 9990 2 32789 097.5387 036.0463 0011510 225.9387 134.0893 15.05559692522853 CO-66 1 32791U 08021J 17341.53695972 .00000442 00000-0 50745-4 0 9990 2 32791 097.5496 002.6773 0012109 299.8054 060.1960 14.90410873520881 RS-30 1 32953U 08025A 17341.48624959 .00000017 00000-0 49676-4 0 9994 2 32953 082.5007 131.9028 0018532 266.9596 092.9364 12.43080527432950 PRISM 1 33493U 09002B 17341.62070171 .00000052 00000-0 10299-4 0 9995 2 33493 098.1469 231.1692 0013929 228.7667 131.2343 14.95981311481706 NOAA-19 1 33591U 09005A 17341.56839424 .00000111 00000-0 85265-4 0 9995 2 33591 099.1172 311.0586 0014495 141.7309 218.4894 14.12235165454867 TISAT-1 1 36799U 10035E 17341.41368242 .00000405 00000-0 47383-4 0 9997 2 36799 98.0822 107.8984 0013641 116.2630 243.9990 14.90628490401583 JUGNU 1 37839U 11058B 17341.56479740 .00000304 00000-0 20094-4 0 9999 2 37839 019.9607 119.1930 0018930 294.9029 141.9498 14.12603399318134 SRMSAT 1 37841U 11058D 17341.51019396 .00000285 00000-0 11477-4 0 9997 2 37841 019.9704 164.7780 0011810 184.9460 193.3634 14.10593595317698 AO-71 1 37854U 11061E 17341.50339417 .00002167 00000-0 12133-3 0 9993 2 37854 101.7047 303.3173 0165106 281.7534 076.5197 15.04905033332540 HRBE 1 37855U 11061F 17341.49953684 .00002436 00000-0 13284-3 0 9997 2 37855 101.7166 300.9977 0178253 289.3582 068.8434 15.03869381332364 ALMASAT-1 1 38078U 12006B 17341.56759117 .00026724 38005-5 27271-3 0 9996 2 38078 069.4347 023.0338 0276037 033.3546 114.5063 15.30640634311231 HORYU-2 1 38340U 12025D 17341.56851611 .00000239 00000-0 43286-4 0 9998 2 38340 098.3760 351.6160 0012823 099.8753 260.3904 14.75460550288449 RS-40 1 38735U 12041C 17341.56374667 .00000021 00000-0 77293-4 0 9999 2 38735 082.4769 216.0813 0017370 013.1797 346.9733 12.42575687243204 BEESAT-3 1 39134U 13015E 17341.53379191 .00001806 00000-0 95706-4 0 9990 2 39134 064.8659 026.6066 0030405 237.8652 121.9524 15.18586558255414 BEESAT-2 1 39136U 13015G 17341.54741943 .00001206 00000-0 72605-4 0 9998 2 39136 064.8708 039.7644 0032173 259.3585 100.3917 15.15695933255159 ZACUBE-1 1 39417U 13066B 17341.55545940 .00000273 00000-0 40833-4 0 9997 2 39417 097.6096 015.2049 0060507 063.4639 297.2760 14.80835575218430 TRITON-1 1 39427U 13066M 17341.58208336 .00000216 00000-0 42265-4 0 9994 2 39427 097.6362 345.3064 0114868 152.6512 208.0805 14.67575294216287 GOMX-1 1 39430U 13066Q 17341.55485258 .00000159 00000-0 38003-4 0 9996 2 39430 097.6776 327.4896 0150848 215.1521 143.9656 14.58985498215020 LO-74 1 39440U 13066AA 17341.57960249 .00000258 00000-0 42866-4 0 9999 2 39440 097.6139 003.0920 0082102 097.6663 263.3880 14.75572958216463 AO-73 1 39444U 13066AE 17341.58311340 .00000326 00000-0 46627-4 0 9991 2 39444 097.6110 016.5096 0059593 059.6047 301.1039 14.81594061216699 SPROUT 1 39770U 14029E 17341.50899889 .00000757 00000-0 91514-4 0 9997 2 39770 097.8767 079.2549 0010374 115.0956 245.1348 14.86570457191881 DUCHIFAT-1 1 40021U 14033M 17341.42588810 .00000494 00000-0 56883-4 0 9991 2 40021 097.9162 254.8041 0014447 089.9642 270.3231 14.90125991188393 NANOSATCBR1 1 40024U 14033Q 17341.30653216 .00000483 00000-0 56746-4 0 9990 2 40024 97.9110 253.2865 0013689 91.8690 268.4095 14.89416355188311 EO-79 1 40025U 14033R 17341.58190879 .00000371 00000-0 45796-4 0 9991 2 40025 097.9081 252.3339 0013915 094.4175 265.8632 14.88586884187775 DTUSAT-2 1 40030U 14033W 17341.29525045 .00000347 00000-0 43692-4 0 9998 2 40030 97.9039 250.9754 0013373 90.5122 269.7626 14.88201593188190 EO-80 1 40032U 14033Y 17341.41221936 .00000329 00000-0 41737-4 0 9994 2 40032 097.9045 251.0967 0013355 090.6079 269.6668 14.88137573187683 ANTELSAT 1 40034U 14033AA 17341.62028812 .00000290 00000-0 50556-4 0 9993 2 40034 097.8350 219.9440 0060279 094.7342 266.0754 14.73821264185931 VELOX-1 1 40057U 14034E 17341.50042597 .00000389 00000-0 62450-4 0 9997 2 40057 098.1956 084.4091 0010192 216.5822 143.4693 14.77291407185344 DAURIA DX 1 1 40071U 14037C 17341.49085538 .00000131 00000-0 24279-4 0 9998 2 40071 098.3535 099.6157 0007582 209.4722 150.6065 14.81097867184627 UKUBE-1 1 40074U 14037F 17341.42531830 .00000359 00000-0 50656-4 0 9995 2 40074 098.3642 104.3309 0004113 197.4563 162.6508 14.83669542184866 HODOYOSHI-1 1 40299U 14070B 17341.44114847 .00000734 00000-0 34513-4 0 9999 2 40299 97.3943 61.4905 0012285 197.8026 222.5572 15.22631244171304 CHUBUSAT-1 1 40300U 14070C 17341.49766413 .00000866 00000-0 41698-4 0 9997 2 40300 097.3839 058.1394 0019319 210.6173 209.9310 15.21272220171132 QSAT-EOS 1 40301U 14070D 17341.45430935 .00002192 00000-0 92427-4 0 9991 2 40301 97.3783 58.6729 0026160 204.8619 251.4783 15.24086243171216 FIREBIRD FU3 1 40377U 15003B 17341.55227318 .00002325 00000-0 99620-4 0 9991 2 40377 099.1081 200.1577 0133907 147.1296 213.8351 15.16425773157261 FIREBIRD FU4 1 40378U 15003C 17341.60850719 .00002262 00000-0 96953-4 0 9991 2 40378 099.1083 200.2733 0134085 146.8455 214.1266 15.16440007157277 GRIFEX 1 40379U 15003D 17341.55460037 .00001562 00000-0 72748-4 0 9994 2 40379 099.1126 197.2434 0140395 156.8624 203.9008 15.13747349157095 NO-84 1 40654U 15025D 17341.24577599 .00007465 00000-0 13307-3 0 01605 2 40654 054.9902 181.2424 0167111 343.6011 015.9678 15.37367024026290 NO-83 1 40655U 15025E 17341.46494553 .00016838 00000-0 21630-3 0 01857 2 40655 054.9767 142.7397 0127273 006.7766 353.5114 15.50174609026487 DEORBITSAIL 1 40719U 15032E 17341.24425460 .00000485 00000-0 77337-4 0 9993 2 40719 097.9626 232.6629 0015646 310.1038 049.8799 14.76264816129856 NUDT-PHONESAT 1 40900U 15049B 17341.52075486 .00002465 00000-0 11585-3 0 9995 2 40900 097.4427 347.0985 0013263 347.2290 012.8607 15.20474706122786 XW-2A 1 40903U 15049E 17341.57305554 .00002352 00000-0 61467-4 0 9995 2 40903 097.4060 009.3681 0014671 008.5849 351.5645 15.39723534124316 XW-2C 1 40906U 15049H 17341.58648651 .00000815 00000-0 47214-4 0 9993 2 40906 097.4572 343.6738 0014532 340.0708 019.9955 15.14909796122482 XW-2D 1 40907U 15049J 17341.55673699 .00000814 00000-0 46991-4 0 9991 2 40907 097.4543 343.3694 0013858 338.4227 021.6420 15.15039628122482 LILACSAT-2 1 40908U 15049K 17341.53825833 .00000417 00000-0 26993-4 0 9998 2 40908 097.4649 342.9467 0015449 337.5639 022.4915 15.13342938122384 XW-2F 1 40910U 15049M 17341.58156577 .00001305 00000-0 71067-4 0 9997 2 40910 097.4555 344.3661 0014524 334.6080 025.4438 15.16096142122543 XW-2B 1 40911U 15049N 17341.56764074 .00000828 00000-0 47795-4 0 9993 2 40911 097.4582 343.8395 0013777 338.9149 021.1514 15.14991746122386 DCBB 1 40912U 15049P 17341.47500764 .00001600 00000-0 81247-4 0 9997 2 40912 97.4502 346.5888 0014740 325.4837 190.3496 15.18262847122578 TW-1C 1 40926U 15051B 17341.48321461 .00008545 00000-0 17665-3 0 9998 2 40926 097.2092 019.8543 0008875 258.1547 209.5215 15.46020048123664 TW-1A 1 40928U 15051D 17341.56220824 .00002865 00000-0 79837-4 0 9999 2 40928 097.2079 014.2320 0010540 299.5213 213.7731 15.37548725123324 IO-86 1 40931U 15052B 17341.09531139 .00000648 00000-0 13163-5 0 9994 2 40931 6.0000 79.8218 0012398 169.6513 190.3923 14.76557173118568 LQSat 1 40958U 15057A 17341.47043458 .00000061 00000-0 17256-4 0 9997 2 40958 97.9633 53.6175 0017035 228.2312 131.7442 14.73005381116628 AO-85 1 40967U 15058D 17341.47723633 .00000068 00000-0 26640-4 0 01725 2 40967 064.7791 053.1549 0185456 015.6300 345.0426 14.75585229025361 ATHENOXAT-1 1 41168U 15077C 17341.30681777 .00002263 00000-0 88773-4 0 9995 2 41168 14.9859 344.1394 0011795 255.4322 115.8096 15.12266388109284 ChubuSat-2 1 41338U 16012B 17341.59046041 .00000383 00000-0 23275-4 0 9991 2 41338 031.0035 090.8550 0014004 335.7983 024.1994 14.99883396099048 ChubuSat-3 1 41339U 16012C 17341.49549531 .00000380 00000-0 22934-4 0 9991 2 41339 031.0088 090.3335 0013920 342.1325 017.8824 15.00077804099011 Horyu-4 1 41340U 16012D 17341.58852628 .00000578 00000-0 37630-4 0 9995 2 41340 031.0056 085.9933 0014253 352.8988 007.1444 15.00825472099084 OUFTI-1 1 41458U 16025C 17341.07613795 .00002248 00000-0 12111-3 0 9995 2 41458 98.1651 28.4603 0172947 71.7683 290.2299 15.04024055 88554 e-st@r-II 1 41459U 16025D 17341.58412845 .00001548 00000-0 84792-4 0 9992 2 41459 098.1653 028.9062 0174810 070.5126 291.4910 15.03805038088629 AAUSAT4 1 41460U 16025E 17341.59678043 .00002440 00000-0 13057-3 0 9996 2 41460 098.1596 029.1605 0166096 067.9113 293.9656 15.04997996088660 LO-87 1 41557U 16033B 17341.36367483 .00001617 00000-0 62163-4 0 9998 2 41557 97.4519 60.8402 0015505 113.6895 246.5973 15.27793141 84860 NuSat2 1 41558U 16033C 17341.41583074 .00001636 00000-0 63223-4 0 9990 2 41558 97.4546 60.9648 0014956 112.3208 247.9618 15.27621959 84865 Lapan A3 1 41603U 16040E 17341.44658174 .00000206 00000-0 12899-4 0 9991 2 41603 97.4401 41.1519 0013182 182.7275 273.0553 15.19477178 80967 Swayam 1 41607U 16040J 17341.13627144 .00001998 00000-0 91442-4 0 9994 2 41607 097.4398 041.5894 0013926 185.0033 175.1066 15.21607690080890 Pratham 1 41783U 16059A 17341.21287714 .00000069 00000-0 22876-4 0 9996 2 41783 098.1459 040.5959 0033078 340.2796 019.7125 14.62885190063890 AlSat 1N 1 41789U 16059G 17341.53613536 .00000108 00000-0 29751-4 0 9995 2 41789 098.1466 041.7537 0028043 333.4676 026.5081 14.64107833063975 ScatSat 1 41790U 16059H 17341.59000954 .00000022 00000-0 16845-4 0 9992 2 41790 098.2884 027.5685 0017576 322.5993 037.3977 14.50852151063405 TY-1 1 41844U 16066D 17341.49616558 .00001585 00000-0 70888-4 0 9994 2 41844 097.4051 346.1008 0015895 357.7934 172.3885 15.22673149059702 CAS-2T 1 41845U 16066E 17341.46933835 .00000161 00000-0 33898-4 0 9991 2 41845 98.7686 1.1752 0367597 93.8956 270.4331 14.37836456 56391 Pegasus-1 1 41846U 16066F 17341.53665996 .00000333 00000-0 60231-4 0 9992 2 41846 098.7712 000.9039 0369765 095.5673 268.7796 14.37205660056371 STARS-C 1 41895U 98067KR 17341.16062682 .00082260 00000-0 43468-3 0 9990 2 41895 051.6334 232.9741 0004797 174.4931 185.6124 15.79878931055134 TO-89 1 41932U 98067KU 17341.18411692 .00019680 00000-0 19076-3 0 9997 2 41932 051.6379 242.2684 0005002 173.2761 186.8303 15.66366454050587 AOBA-V3LOX3 1 41935U 98067KX 17341.16358392 .00025416 00000-0 23242-3 0 9999 2 41935 51.6373 241.3653 0004609 171.3931 188.7145 15.67641147 50693 OSNSAT 1 41939U 98067KZ 17341.09679419 .00182766 23278-4 59960-3 0 9995 2 41939 51.6299 227.2208 0007921 177.6159 182.4885 15.90144874 50125 EO-88 1 42017U 17008BX 17341.58540207 .00001955 00000-0 84149-4 0 9997 2 42017 097.4743 042.5829 0005892 347.7130 012.3962 15.23808872044880 HAVELSAT 1 42700U 98067LH 17341.32074019 .00017246 00000-0 19497-3 0 9998 2 42700 51.6378 249.1580 0003805 231.7866 128.2786 15.62558123 31942 SOMP2 1 42701U 98067LJ 17341.35471764 .00016310 00000-0 18818-3 0 9997 2 42701 51.6374 249.3857 0003874 231.5987 128.4660 15.62078018 31938 Columbia 1 42702U 98067LK 17341.28070991 .00081254 00000-0 54066-3 0 9991 2 42702 51.6327 243.5932 0005051 180.0819 180.0180 15.74690756 31931 PHOENIX 1 42706U 98067LP 17341.21326338 .00016699 00000-0 19240-3 0 9993 2 42706 51.6376 249.9426 0001860 145.5290 214.5825 15.62096149 31831 X-CubeSat 1 42707U 98067LQ 17341.20235750 .00018805 00000-0 21204-3 0 9994 2 42707 51.6359 249.8554 0002017 147.5694 212.5424 15.62559306 31820 qbee 1 42708U 98067LR 17341.21375540 .00018972 00000-0 21593-3 0 9994 2 42708 51.6370 249.9344 0001968 148.1633 211.9481 15.62310356 31787 ZA-AeroSat 1 42713U 98067LU 17341.29315593 .00015867 00000-0 19040-3 0 9994 2 42713 51.6371 250.4737 0003153 147.6848 212.4340 15.61077969 31494 LINK 1 42714U 98067LV 17341.22097576 .00030218 00000-0 31423-3 0 9992 2 42714 51.6352 249.2217 0003793 145.1895 214.9349 15.64322107 31618 UPSat 1 42716U 98067LX 17341.28376050 .00024605 00000-0 26333-3 0 9994 2 42716 51.6371 248.9085 0002349 214.8447 145.2394 15.63713137 31648 SpaceCube 1 42717U 98067LY 17341.23083547 .00020662 00000-0 23555-3 0 9998 2 42717 051.6370 250.0546 0002440 223.2372 136.8431 15.62204201030864 Hoopoe 1 42718U 98067LZ 17341.32052551 .00020339 00000-0 22501-3 0 9991 2 42718 51.6371 249.1532 0002479 215.5255 144.5574 15.62991863 30889 Challenger 1 42721U 98067MA 17341.23469812 .00035123 00000-0 34642-3 0 9993 2 42721 51.6357 248.5613 0005263 202.7718 157.3045 15.65572070 30586 NJUST-1 1 42722U 98067MB 17341.33162081 .00014394 00000-0 17613-3 0 9999 2 42722 51.6379 250.7275 0005679 218.9192 141.1393 15.60647712 30562 UNSW-EC0 1 42723U 98067MC 17341.35526473 .00021176 00000-0 23429-3 0 9999 2 42723 51.6382 249.3905 0005252 210.4592 149.6098 15.62950606 30565 DUTHsat 1 42724U 98067MD 17341.19784225 .00031413 00000-0 31640-3 0 9992 2 42724 51.6367 249.0787 0004490 201.4586 158.6222 15.65105845 30479 LO-90 1 42725U 98067ME 17341.30639907 .00018068 00000-0 21286-3 0 9998 2 42725 51.6376 250.5623 0004605 215.6319 144.4368 15.61444976 30465 nSIGHT1 1 42726U 98067MF 17341.19204402 .00008054 00000-0 11026-3 0 9999 2 42726 51.6388 252.8068 0005126 226.6785 133.3781 15.58391100 30434 QBITO 1 42728U 98067MH 17341.19738548 .00018481 00000-0 21208-3 0 9992 2 42728 51.6394 250.6012 0002291 200.2123 159.8781 15.62117272 30267 Aalto-2 1 42729U 98067MJ 17341.32360879 .00017817 00000-0 20420-3 0 9993 2 42729 51.6379 249.9301 0002286 199.4413 160.6494 15.62179281 30290 SUSat 1 42730U 98067MK 17341.21510775 .00018519 00000-0 21522-3 0 9999 2 42730 51.6374 250.6999 0002438 200.4070 159.6827 15.61787304 30265 i-INSPIRE II 1 42731U 98067ML 17341.33844021 .00023199 00000-0 25370-3 0 9992 2 42731 51.6364 249.2546 0007136 165.7091 194.4107 15.63176068 30341 PolyITAN-2-SAU 1 42732U 98067MM 17341.37751745 .00019080 00000-0 21655-3 0 9993 2 42732 51.6370 249.5212 0007096 167.0947 193.0230 15.62358451 30341 SNUSAT-1 1 42733U 98067MN 17341.21584816 .00018526 00000-0 21547-3 0 9994 2 42733 51.6373 250.6958 0007034 169.2661 190.8484 15.61746314 30315 ExAlta-1 1 42734U 98067MP 17341.28015762 .00024616 00000-0 26884-3 0 9997 2 42734 51.6363 249.6177 0007535 190.2526 169.8316 15.63167666 30281 Aoxiang-1 1 42735U 98067MQ 17341.25907772 .00014594 00000-0 17755-3 0 9997 2 42735 51.6373 250.9865 0006248 216.0708 143.9864 15.60782421 31686 BeEagleSat 1 42736U 98067MR 17341.36684894 .00015885 00000-0 18903-3 0 9997 2 42736 51.6369 250.2063 0006138 213.7979 146.2624 15.61283779 30397 Atlantis 1 42737U 98067MS 17341.18888742 .00061279 00000-0 46380-3 0 9994 2 42737 51.6326 245.9730 0006418 183.9614 176.1335 15.71779439 30326 CAS-4B 1 42759U 17034B 17341.61274241 .00000338 00000-0 34561-4 0 9992 2 42759 043.0195 054.8360 0008878 343.2558 161.3508 15.09127822026502 CAS-4A 1 42761U 17034D 17341.53486196 .00000328 00000-0 33848-4 0 9996 2 42761 043.0197 055.1559 0009185 343.8777 144.1580 15.09202962026487 UCLSat 1 42765U 17036A 17341.11553506 .00001482 00000-0 69203-4 0 9992 2 42765 097.4289 038.8222 0012825 036.3332 323.8772 15.21318460026098 NIUSat 1 42766U 17036B 17341.58647478 .00001175 00000-0 57627-4 0 9992 2 42766 097.4290 038.9646 0016587 019.8244 340.3632 15.19964463025421 LituanicaSAT 2 1 42768U 17036D 17341.22467448 .00002458 00000-0 11515-3 0 9992 2 42768 097.4292 038.6832 0016521 024.1052 336.0953 15.20537522025380 Aalto 1 1 42775U 17036L 17341.46908673 .00000970 00000-0 47585-4 0 9990 2 42775 097.4287 038.9636 0014840 021.8130 338.3734 15.20385022025366 URSA MAIOR 1 42776U 17036M 17341.39836859 .00001023 00000-0 49938-4 0 9993 2 42776 097.4291 038.9117 0014697 022.3347 337.8526 15.20444284025350 Max Valier Sat 1 42778U 17036P 17341.35411014 .00001156 00000-0 55368-4 0 9994 2 42778 97.4310 39.0053 0013367 28.5147 331.6817 15.20885679 25345 Pegasus 1 42784U 17036V 17341.26249520 .00001345 00000-0 63367-4 0 9990 2 42784 097.4291 038.9369 0013350 035.5234 324.6888 15.21160652025332 NUDATSat 1 42787U 17036Y 17341.17382472 .00002214 00000-0 10124-3 0 9995 2 42787 97.4290 38.9033 0012924 36.3862 323.8250 15.21522704 25169 SUCHAI 1 1 42788U 17036Z 17341.11680510 .00001603 00000-0 74539-4 0 9996 2 42788 097.4291 038.8239 0012990 036.2673 323.9441 15.21348198025380 SKCUBE 1 42789U 17036AA 17341.11394853 .00001489 00000-0 69464-4 0 9992 2 42789 097.4290 038.8257 0012810 036.2011 324.0089 15.21349329025306 VZLUSAT 1 1 42790U 17036AB 17341.23247402 .00002088 00000-0 95574-4 0 9991 2 42790 097.4287 038.9691 0012477 036.7494 323.4595 15.21558348025326 VENTA 1 1 42791U 17036AC 17341.23512957 .00001441 00000-0 67204-4 0 9993 2 42791 097.4290 038.9679 0012451 036.8557 323.3532 15.21423222025311 Robusta 1B 1 42792U 17036AD 17341.23145065 .00001472 00000-0 68452-4 0 9996 2 42792 097.4288 038.9682 0012408 037.3306 322.8789 15.21482754025338 D-SAT 1 42794U 17036AF 17341.41716170 .00000265 00000-0 28773-4 0 9990 2 42794 097.6209 038.0263 0126947 199.4844 160.1500 14.90728071025156 BIRD-J 1 42820U 98067MU 17341.20761770 .00015668 00000-0 19198-3 0 9999 2 42820 51.6370 252.1428 0004028 144.0172 216.1094 15.60538526 23815 BIRD-G 1 42821U 98067MV 17341.15364581 .00017294 00000-0 21287-3 0 9992 2 42821 051.6372 252.5317 0003941 146.5426 213.5816 15.60333031023807 BIRD-M 1 42822U 98067MW 17341.21672657 .00016018 00000-0 19713-3 0 9990 2 42822 051.6372 252.2051 0003889 148.0604 212.0625 15.60403315023812 BIRD-B 1 42823U 98067MX 17341.21854373 .00016086 00000-0 19780-3 0 9997 2 42823 51.6378 252.2230 0006257 174.8986 185.2072 15.60411273 23796 BIRD-N 1 42824U 98067MY 17341.22556949 .00016408 00000-0 20239-3 0 9996 2 42824 051.6383 252.2738 0006120 175.2946 184.8106 15.60313195023816 TechnoSat 1 42829U 17042E 17341.60058449 .00000201 00000-0 25856-4 0 9994 2 42829 097.6080 246.0069 0015670 113.9796 246.3065 14.90732921021781 Mayak 1 42830U 17042F 17341.58770387 .00000781 00000-0 84250-4 0 9991 2 42830 097.6086 246.0351 0015727 111.2938 248.9961 14.90997588021780 OBJECT MZ 1 42910U 98067MZ 17341.32396604 .00012523 00000-0 16472-3 0 9991 2 42910 51.6366 252.9092 0006556 199.8950 160.1788 15.58867360 17409 OBJECT NA 1 42911U 98067NA 17341.38122930 .00014093 00000-0 18261-3 0 9999 2 42911 51.6378 252.5601 0006250 193.7997 166.2826 15.59147732 17393 OBJECT NB 1 42912U 98067NB 17341.26894070 .00013492 00000-0 17706-3 0 9993 2 42912 51.6373 253.2780 0005329 205.3872 154.6859 15.58856886 17396 OBJECT NC 1 42913U 98067NC 17341.25658357 .00023893 00000-0 28297-3 0 9992 2 42913 051.6367 252.4608 0004070 202.2408 157.8410 15.61109433017406 OBJECT ND 1 42914U 98067ND 17341.46980023 .00012456 00000-0 16536-3 0 9990 2 42914 051.6378 252.3972 0005396 199.9367 160.1415 15.58631031017390 QIKCOM-1 1 42983U 98067NF 17341.27519242 .00003969 00000-0 65465-4 0 9991 2 42983 51.6437 255.2993 0004434 186.5911 316.4522 15.54857675 6344 AO-91 1 43017U 17073E 17341.34175393 .00000444 00000-0 40460-4 0 9994 2 43017 097.6928 275.6688 0260776 175.7619 184.5890 14.77789342002777 EcAMSat 1 43019U 98067NG 17341.19058147 .00005850 00000-0 92624-4 0 9993 2 43019 51.6397 255.7871 0005470 169.2668 190.8441 15.54997781 88659 /EX
